| time (UTC) | temp F | wind direction | speed MPH | gust MPH | rain 1hr in | rain 24hr in | rain mn in | humidity % | barometer mb |
| 20260507191733 | 88 | 335 | 1.0 | 1.0 | 0.00 | 0.00 | 0.77 | 74 | 1009.0 |
| 20260507191234 | 88 | 335 | 1.0 | 1.0 | 0.00 | 0.00 | 0.77 | 75 | 1010.0 |
| 20260507190734 | 88 | 335 | 1.0 | 1.0 | 0.00 | 0.00 | 0.77 | 74 | 1010.0 |
| 20260507190234 | 88 | 335 | 1.0 | 1.0 | 0.00 | 0.00 | 0.77 | 74 | 1010.0 |
| 20260507185733 | 88 | 335 | 1.0 | 1.0 | 0.00 | 0.00 | 0.77 | 74 | 1010.0 |
| 20260507185233 | 88 | 335 | 1.0 | 1.0 | 0.00 | 0.00 | 0.77 | 75 | 1010.0 |
| 20260507184733 | 88 | 335 | 1.0 | 1.0 | 0.00 | 0.00 | 0.77 | 74 | 1010.0 |
| 20260507184234 | 88 | 335 | 1.0 | 1.0 | 0.00 | 0.00 | 0.77 | 74 | 1011.0 |
| 20260507183733 | 88 | 335 | 1.0 | 1.0 | 0.00 | 0.00 | 0.77 | 74 | 1011.0 |
| 20260507183234 | 88 | 335 | 1.0 | 1.0 | 0.00 | 0.00 | 0.77 | 73 | 1010.0 |
| 20260507182734 | 89 | 335 | 1.0 | 1.0 | 0.00 | 0.00 | 0.77 | 73 | 1011.0 |
| 20260507182234 | 90 | 335 | 1.0 | 1.0 | 0.00 | 0.00 | 0.77 | 74 | 1011.0 |
| 20260507181733 | 90 | 335 | 1.0 | 1.0 | 0.00 | 0.00 | 0.77 | 74 | 1011.0 |
| 20260507181233 | 89 | 335 | 1.0 | 1.0 | 0.00 | 0.00 | 0.77 | 76 | 1011.0 |
| 20260507180734 | 87 | 335 | 1.0 | 1.0 | 0.00 | 0.00 | 0.77 | 76 | 1012.0 |
| 20260507180233 | 87 | 335 | 1.0 | 1.0 | 0.00 | 0.00 | 0.77 | 76 | 1012.0 |
| 20260507175733 | 87 | 335 | 1.0 | 1.0 | 0.00 | 0.00 | 0.77 | 76 | 1012.0 |
| 20260507175236 | 86 | 335 | 1.0 | 1.0 | 0.00 | 0.00 | 0.77 | 76 | 1012.0 |
| 20260507174734 | 87 | 335 | 1.0 | 1.0 | 0.00 | 0.00 | 0.77 | 75 | 1012.0 |
| 20260507174234 | 88 | 335 | 1.0 | 1.0 | 0.00 | 0.00 | 0.77 | 74 | 1012.0 |
| 20260507173733 | 89 | 335 | 1.0 | 1.0 | 0.00 | 0.00 | 0.77 | 76 | 1012.0 |
| 20260507173234 | 88 | 335 | 1.0 | 1.0 | 0.00 | 0.00 | 0.77 | 77 | 1013.0 |
| 20260507172734 | 87 | 335 | 1.0 | 1.0 | 0.00 | 0.00 | 0.77 | 78 | 1013.0 |
| 20260507172233 | 87 | 335 | 1.0 | 1.0 | 0.00 | 0.00 | 0.77 | 78 | 1013.0 |
| 20260507171734 | 86 | 335 | 1.0 | 1.0 | 0.00 | 0.00 | 0.77 | 79 | 1013.0 |
| 20260507171234 | 86 | 335 | 1.0 | 1.0 | 0.00 | 0.00 | 0.77 | 78 | 1013.0 |
| 20260507170733 | 86 | 335 | 1.0 | 1.0 | 0.00 | 0.00 | 0.77 | 79 | 1013.0 |
| 20260507170234 | 86 | 335 | 1.0 | 1.0 | 0.00 | 0.00 | 0.77 | 79 | 1013.0 |
| 20260507165734 | 86 | 335 | 1.0 | 1.0 | 0.00 | 0.00 | 0.77 | 80 | 1014.0 |
| 20260507165234 | 86 | 335 | 1.0 | 1.0 | 0.00 | 0.00 | 0.77 | 81 | 1014.0 |
| 20260507164734 | 85 | 335 | 1.0 | 1.0 | 0.00 | 0.00 | 0.77 | 82 | 1014.0 |
| 20260507164234 | 84 | 335 | 1.0 | 1.0 | 0.00 | 0.00 | 0.77 | 82 | 1014.0 |
| 20260507163734 | 84 | 335 | 1.0 | 1.0 | 0.00 | 0.00 | 0.77 | 84 | 1014.0 |
| 20260507163233 | 83 | 335 | 1.0 | 1.0 | 0.00 | 0.00 | 0.77 | 84 | 1014.0 |
| 20260507162733 | 83 | 335 | 1.0 | 1.0 | 0.00 | 0.00 | 0.77 | 85 | 1014.0 |
| 20260507162234 | 82 | 335 | 1.0 | 1.0 | 0.00 | 0.00 | 0.77 | 84 | 1014.0 |
| 20260507161733 | 82 | 335 | 1.0 | 1.0 | 0.00 | 0.00 | 0.77 | 84 | 1015.0 |
| 20260507161233 | 82 | 335 | 1.0 | 1.0 | 0.00 | 0.00 | 0.77 | 84 | 1014.0 |
| 20260507160734 | 82 | 335 | 1.0 | 1.0 | 0.00 | 0.00 | 0.77 | 84 | 1015.0 |
| 20260507160233 | 83 | 335 | 1.0 | 1.0 | 0.00 | 0.00 | 0.77 | 83 | 1015.0 |
| 20260507155734 | 84 | 335 | 1.0 | 1.0 | 0.00 | 0.00 | 0.77 | 83 | 1014.0 |
| 20260507155233 | 84 | 335 | 1.0 | 1.0 | 0.00 | 0.00 | 0.77 | 84 | 1015.0 |
| 20260507154734 | 84 | 335 | 1.0 | 1.0 | 0.00 | 0.00 | 0.77 | 86 | 1014.0 |
| 20260507154234 | 83 | 335 | 1.0 | 1.0 | 0.00 | 0.00 | 0.77 | 86 | 1015.0 |
| 20260507153733 | 82 | 335 | 1.0 | 1.0 | 0.00 | 0.00 | 0.77 | 87 | 1015.0 |
| 20260507153233 | 82 | 335 | 1.0 | 1.0 | 0.00 | 0.00 | 0.77 | 88 | 1015.0 |
| 20260507152734 | 81 | 335 | 1.0 | 1.0 | 0.00 | 0.00 | 0.77 | 88 | 1015.0 |
| 20260507152234 | 80 | 335 | 1.0 | 1.0 | 0.00 | 0.00 | 0.77 | 89 | 1015.0 |
| 20260507151733 | 80 | 335 | 1.0 | 1.0 | 0.00 | 0.00 | 0.77 | 89 | 1015.0 |
| 20260507151234 | 80 | 335 | 1.0 | 1.0 | 0.00 | 0.00 | 0.77 | 90 | 1015.0 |
| 20260507150734 | 80 | 335 | 1.0 | 1.0 | 0.00 | 0.00 | 0.77 | 91 | 1016.0 |
| 20260507150233 | 80 | 335 | 1.0 | 1.0 | 0.00 | 0.00 | 0.77 | 91 | 1016.0 |
| 20260507145734 | 80 | 335 | 1.0 | 1.0 | 0.00 | 0.00 | 0.77 | 91 | 1016.0 |
| 20260507145233 | 80 | 335 | 1.0 | 1.0 | 0.00 | 0.00 | 0.77 | 92 | 1016.0 |
| 20260507144733 | 79 | 335 | 1.0 | 1.0 | 0.00 | 0.00 | 0.77 | 93 | 1016.0 |
| 20260507144233 | 78 | 335 | 1.0 | 2.0 | 0.00 | 0.00 | 0.77 | 93 | 1016.0 |
| 20260507143733 | 78 | 163 | 2.0 | 3.0 | 0.00 | 0.00 | 0.77 | 93 | 1016.0 |
| 20260507143234 | 78 | 152 | 2.0 | 4.0 | 0.00 | 0.00 | 0.77 | 93 | 1016.0 |
| 20260507142734 | 78 | 68 | 0.0 | 2.0 | 0.00 | 0.00 | 0.77 | 94 | 1016.0 |
| 20260507142234 | 77 | 159 | 0.0 | 2.0 | 0.00 | 0.00 | 0.77 | 94 | 1016.0 |
| 20260507141734 | 77 | 196 | 3.0 | 3.0 | 0.00 | 0.00 | 0.77 | 94 | 1016.0 |
| 20260507141233 | 77 | 182 | 3.0 | 3.0 | 0.00 | 0.00 | 0.77 | 95 | 1016.0 |
| 20260507140734 | 77 | 169 | 2.0 | 3.0 | 0.00 | 0.00 | 0.77 | 95 | 1016.0 |
| 20260507140233 | 77 | 178 | 1.0 | 2.0 | 0.00 | 0.00 | 0.77 | 97 | 1016.0 |
| 20260507135733 | 76 | 255 | 0.0 | 3.0 | 0.00 | 0.00 | 0.77 | 97 | 1016.0 |
| 20260507135233 | 76 | 277 | 0.0 | 3.0 | 0.00 | 0.00 | 0.77 | 97 | 1016.0 |
| 20260507134734 | 75 | 357 | 3.0 | 3.0 | 0.00 | 0.00 | 0.77 | 97 | 1016.0 |
| 20260507134233 | 75 | 247 | 0.0 | 3.0 | 0.00 | 0.00 | 0.77 | 97 | 1016.0 |
| 20260507133733 | 75 | 323 | 0.0 | 2.0 | 0.00 | 0.00 | 0.77 | 98 | 1016.0 |
| 20260507133234 | 75 | 167 | 0.0 | 1.0 | 0.00 | 0.00 | 0.77 | 98 | 1016.0 |
| 20260507132733 | 75 | 238 | 0.0 | 2.0 | 0.00 | 0.00 | 0.77 | 98 | 1016.0 |
| 20260507132233 | 75 | 0 | 0.0 | 2.0 | 0.00 | 0.00 | 0.77 | 98 | 1016.0 |
| 20260507131734 | 75 | 296 | 0.0 | 3.0 | 0.00 | 0.00 | 0.77 | 98 | 1016.0 |
| 20260507131234 | 74 | 346 | 2.0 | 2.0 | 0.00 | 0.00 | 0.77 | 98 | 1016.0 |
| 20260507130734 | 74 | 46 | 0.0 | 2.0 | 0.00 | 0.00 | 0.77 | 98 | 1016.0 |
| 20260507130237 | 74 | 58 | 0.0 | 3.0 | 0.00 | 0.00 | 0.77 | 98 | 1016.0 |
| 20260507125734 | 74 | 31 | 0.0 | 2.0 | 0.00 | 0.00 | 0.77 | 98 | 1016.0 |
| 20260507125234 | 74 | 88 | 0.0 | 1.0 | 0.00 | 0.00 | 0.77 | 98 | 1015.0 |
| 20260507124734 | 74 | 142 | 0.0 | 2.0 | 0.00 | 0.00 | 0.77 | 98 | 1015.0 |
| 20260507124234 | 74 | 307 | 1.0 | 3.0 | 0.00 | 0.00 | 0.77 | 98 | 1015.0 |
| 20260507123733 | 73 | 48 | 0.0 | 2.0 | 0.00 | 0.00 | 0.77 | 99 | 1015.0 |
| 20260507123233 | 73 | 40 | 0.0 | 2.0 | 0.02 | 0.00 | 0.77 | 98 | 1015.0 |
| 20260507122733 | 73 | 40 | 0.0 | 1.0 | 0.00 | 0.00 | 0.77 | 98 | 1015.0 |
| 20260507122233 | 73 | 175 | 0.0 | 1.0 | 0.02 | 0.00 | 0.77 | 98 | 1015.0 |
| 20260507121734 | 73 | 84 | 0.0 | 2.0 | 0.02 | 0.00 | 0.77 | 98 | 1015.0 |
| 20260507121234 | 73 | 304 | 0.0 | 1.0 | 0.00 | 0.00 | 0.76 | 98 | 1015.0 |
| 20260507120733 | 73 | 291 | 0.0 | 1.0 | 0.00 | 0.00 | 0.76 | 98 | 1015.0 |
| 20260507120234 | 73 | 132 | 0.0 | 1.0 | 0.00 | 0.00 | 0.76 | 98 | 1015.0 |
| 20260507115733 | 73 | 204 | 0.0 | 0.0 | 0.00 | 0.00 | 0.76 | 98 | 1015.0 |
| 20260507115233 | 73 | 53 | 0.0 | 0.0 | 0.02 | 0.00 | 0.76 | 98 | 1015.0 |
| 20260507114733 | 73 | 51 | 0.0 | 1.0 | 0.05 | 0.00 | 0.76 | 98 | 1015.0 |
| 20260507114233 | 73 | 156 | 0.0 | 1.0 | 0.05 | 0.00 | 0.76 | 98 | 1015.0 |
| 20260507113733 | 73 | 89 | 0.0 | 1.0 | 0.09 | 0.00 | 0.76 | 98 | 1014.0 |
| 20260507113234 | 72 | 84 | 0.0 | 1.0 | 0.07 | 0.00 | 0.75 | 98 | 1015.0 |
| 20260507112735 | 72 | 63 | 1.0 | 2.0 | 0.05 | 0.00 | 0.74 | 98 | 1014.0 |
| 20260507112233 | 72 | 146 | 1.0 | 2.0 | 0.02 | 0.00 | 0.74 | 98 | 1014.0 |
| 20260507111735 | 73 | 168 | 0.0 | 2.0 | 0.00 | 0.00 | 0.73 | 98 | 1014.0 |
| 20260507111234 | 73 | 188 | 0.0 | 2.0 | 0.00 | 0.00 | 0.73 | 98 | 1014.0 |
| 20260507110734 | 73 | 134 | 2.0 | 2.0 | 0.00 | 0.00 | 0.73 | 98 | 1014.0 |
| 20260507110234 | 73 | 84 | 1.0 | 2.0 | 0.00 | 0.00 | 0.73 | 98 | 1014.0 |
| 20260507105733 | 73 | 70 | 0.0 | 1.0 | 0.00 | 0.00 | 0.73 | 98 | 1014.0 |
| 20260507105233 | 73 | 80 | 1.0 | 2.0 | 0.00 | 0.00 | 0.73 | 98 | 1014.0 |
| 20260507104734 | 73 | 73 | 1.0 | 2.0 | 0.00 | 0.00 | 0.73 | 98 | 1014.0 |
| 20260507104233 | 73 | 81 | 1.0 | 1.0 | 0.00 | 0.00 | 0.73 | 98 | 1014.0 |
| 20260507103733 | 72 | 62 | 1.0 | 1.0 | 0.00 | 0.00 | 0.73 | 98 | 1014.0 |
| 20260507103235 | 72 | 112 | 0.0 | 2.0 | 0.00 | 0.00 | 0.73 | 98 | 1014.0 |
| 20260507102733 | 72 | 126 | 0.0 | 2.0 | 0.02 | 0.00 | 0.73 | 98 | 1014.0 |
| 20260507102233 | 73 | 167 | 1.0 | 1.0 | 0.02 | 0.00 | 0.73 | 98 | 1014.0 |
| 20260507101733 | 73 | 212 | 0.0 | 2.0 | 0.07 | 0.00 | 0.73 | 97 | 1014.0 |
| 20260507101234 | 73 | 82 | 1.0 | 1.0 | 0.14 | 0.00 | 0.73 | 97 | 1014.0 |
| 20260507100734 | 73 | 221 | 2.0 | 4.0 | 0.17 | 0.00 | 0.72 | 97 | 1014.0 |
| 20260507100233 | 73 | 176 | 2.0 | 2.0 | 0.14 | 0.00 | 0.70 | 97 | 1014.0 |
| 20260507095733 | 73 | 164 | 1.0 | 5.0 | 0.12 | 0.00 | 0.69 | 97 | 1014.0 |
| 20260507095234 | 73 | 227 | 0.0 | 4.0 | 0.12 | 0.00 | 0.68 | 97 | 1014.0 |
| 20260507094734 | 73 | 197 | 1.0 | 3.0 | 0.19 | 0.00 | 0.67 | 96 | 1014.0 |
| 20260507094233 | 73 | 226 | 2.0 | 3.0 | 0.17 | 0.00 | 0.66 | 96 | 1014.0 |
| 20260507093736 | 74 | 136 | 3.0 | 5.0 | 0.14 | 0.00 | 0.64 | 97 | 1014.0 |
| 20260507093233 | 74 | 118 | 2.0 | 7.0 | 0.14 | 0.00 | 0.63 | 96 | 1014.0 |
| 20260507092734 | 74 | 66 | 5.0 | 7.0 | 0.21 | 0.00 | 0.61 | 96 | 1014.0 |
| 20260507092234 | 74 | 81 | 6.0 | 9.0 | 0.26 | 0.00 | 0.60 | 97 | 1014.0 |
| 20260507091734 | 75 | 78 | 7.0 | 13.0 | 0.69 | 0.00 | 0.58 | 97 | 1014.0 |
| 20260507091233 | 75 | 36 | 6.0 | 7.0 | 2.06 | 0.00 | 0.56 | 97 | 1014.0 |
| 20260507090733 | 75 | 84 | 6.0 | 9.0 | 2.43 | 0.00 | 0.45 | 97 | 1014.0 |
| 20260507090233 | 75 | 77 | 10.0 | 14.0 | 1.11 | 0.00 | 0.19 | 97 | 1013.0 |
| 20260507085733 | 75 | 111 | 7.0 | 10.0 | 0.24 | 0.00 | 0.04 | 97 | 1013.0 |
| 20260507085233 | 75 | 140 | 9.0 | 12.0 | 0.02 | 0.00 | 0.00 | 97 | 1013.0 |
| 20260507084733 | 75 | 116 | 6.0 | 11.0 | 0.00 | 0.00 | 0.00 | 98 | 1013.0 |
| 20260507084234 | 75 | 115 | 4.0 | 10.0 | 0.00 | 0.00 | 0.00 | 98 | 1013.0 |
| 20260507083734 | 75 | 126 | 2.0 | 3.0 | 0.00 | 0.00 | 0.00 | 98 | 1013.0 |
| 20260507083233 | 75 | 122 | 0.0 | 1.0 | 0.00 | 0.00 | 0.00 | 98 | 1013.0 |
| 20260507082733 | 75 | 65 | 0.0 | 2.0 | 0.00 | 0.00 | 0.00 | 98 | 1013.0 |
| 20260507082233 | 75 | 125 | 0.0 | 0.0 | 0.00 | 0.00 | 0.00 | 98 | 1012.0 |
| 20260507081733 | 75 | 131 | 0.0 | 0.0 | 0.00 | 0.00 | 0.00 | 98 | 1013.0 |
| 20260507081234 | 75 | 124 | 0.0 | 1.0 | 0.00 | 0.00 | 0.00 | 97 | 1012.0 |
| 20260507080733 | 75 | 181 | 0.0 | 2.0 | 0.00 | 0.00 | 0.00 | 97 | 1012.0 |
| 20260507080233 | 76 | 244 | 0.0 | 0.0 | 0.00 | 0.00 | 0.00 | 98 | 1012.0 |
| 20260507075733 | 76 | 203 | 0.0 | 0.0 | 0.00 | 0.00 | 0.00 | 98 | 1012.0 |
| 20260507075233 | 76 | 154 | 0.0 | 0.0 | 0.00 | 0.00 | 0.00 | 97 | 1013.0 |
| 20260507074734 | 76 | 30 | 0.0 | 0.0 | 0.00 | 0.00 | 0.00 | 98 | 1013.0 |
| 20260507074233 | 76 | 278 | 0.0 | 2.0 | 0.00 | 0.00 | 0.00 | 98 | 1013.0 |
| 20260507073734 | 76 | 156 | 0.0 | 0.0 | 0.00 | 0.00 | 0.00 | 97 | 1013.0 |
| 20260507073234 | 76 | 125 | 0.0 | 1.0 | 0.00 | 0.00 | 0.00 | 98 | 1013.0 |
| 20260507072733 | 75 | 135 | 0.0 | 2.0 | 0.00 | 0.00 | 0.00 | 97 | 1013.0 |
| 20260507072234 | 75 | 156 | 0.0 | 2.0 | 0.00 | 0.00 | 0.00 | 97 | 1013.0 |
| 20260507071734 | 75 | 174 | 0.0 | 2.0 | 0.00 | 0.00 | 0.00 | 97 | 1013.0 |
| 20260507071234 | 75 | 113 | 1.0 | 3.0 | 0.00 | 0.00 | 0.00 | 97 | 1013.0 |
| 20260507070734 | 75 | 129 | 1.0 | 2.0 | 0.00 | 0.00 | 0.00 | 97 | 1013.0 |
| 20260507070233 | 76 | 127 | 0.0 | 2.0 | 0.00 | 0.00 | 0.00 | 97 | 1013.0 |
| 20260507065733 | 76 | 142 | 0.0 | 0.0 | 0.00 | 0.00 | 0.00 | 97 | 1013.0 |
| 20260507065234 | 76 | 121 | 0.0 | 0.0 | 0.00 | 0.00 | 0.00 | 97 | 1013.0 |
| 20260507064733 | 76 | 319 | 0.0 | 1.0 | 0.00 | 0.00 | 0.00 | 97 | 1013.0 |
| 20260507064234 | 76 | 162 | 0.0 | 0.0 | 0.00 | 0.00 | 0.00 | 97 | 1013.0 |
| 20260507063733 | 76 | 109 | 0.0 | 0.0 | 0.00 | 0.00 | 0.00 | 97 | 1013.0 |
| 20260507063236 | 76 | 315 | 0.0 | 1.0 | 0.00 | 0.00 | 0.00 | 97 | 1013.0 |
| 20260507062734 | 76 | 128 | 0.0 | 0.0 | 0.00 | 0.00 | 0.00 | 97 | 1013.0 |
| 20260507062234 | 76 | 58 | 0.0 | 0.0 | 0.00 | 0.00 | 0.00 | 97 | 1014.0 |
| 20260507061734 | 76 | 77 | 0.0 | 1.0 | 0.00 | 0.00 | 0.00 | 97 | 1013.0 |
| 20260507061234 | 76 | 86 | 0.0 | 0.0 | 0.00 | 0.00 | 0.00 | 97 | 1014.0 |
| 20260507060733 | 77 | 152 | 0.0 | 0.0 | 0.00 | 0.00 | 0.00 | 96 | 1014.0 |
| 20260507060233 | 77 | 238 | 0.0 | 0.0 | 0.00 | 0.00 | 0.00 | 97 | 1014.0 |
| 20260507055734 | 77 | 220 | 0.0 | 0.0 | 0.00 | 0.00 | 0.00 | 97 | 1014.0 |
| 20260507055237 | 77 | 149 | 0.0 | 0.0 | 0.00 | 0.00 | 0.00 | 97 | 1014.0 |
| 20260507054735 | 77 | 135 | 0.0 | 1.0 | 0.00 | 0.00 | 0.00 | 97 | 1014.0 |
| 20260507054233 | 77 | 224 | 0.0 | 0.0 | 0.00 | 0.00 | 0.00 | 97 | 1014.0 |
| 20260507053733 | 77 | 311 | 0.0 | 0.0 | 0.00 | 0.00 | 0.00 | 97 | 1014.0 |
| 20260507053234 | 77 | 132 | 0.0 | 1.0 | 0.00 | 0.00 | 0.00 | 97 | 1014.0 |
| 20260507052733 | 77 | 68 | 0.0 | 1.0 | 0.00 | 0.00 | 0.00 | 97 | 1014.0 |
| 20260507052233 | 77 | 68 | 0.0 | 1.0 | 0.00 | 0.00 | 0.00 | 97 | 1014.0 |
| 20260507051733 | 77 | 130 | 0.0 | 0.0 | 0.00 | 0.00 | 0.00 | 97 | 1015.0 |
| 20260507051233 | 77 | 40 | 0.0 | 1.0 | 0.00 | 0.00 | 0.00 | 97 | 1014.0 |
| 20260507050734 | 76 | 113 | 0.0 | 0.0 | 0.00 | 0.00 | 0.00 | 97 | 1015.0 |
| 20260507050234 | 76 | 51 | 0.0 | 0.0 | 0.00 | 0.00 | 0.00 | 97 | 1015.0 |
| 20260507045733 | 76 | 125 | 0.0 | 0.0 | 0.00 | 0.00 | 1.18 | 96 | 1015.0 |
| 20260507045234 | 76 | 162 | 0.0 | 2.0 | 0.00 | 0.00 | 1.18 | 96 | 1015.0 |
| 20260507044733 | 76 | 150 | 1.0 | 2.0 | 0.00 | 0.00 | 1.18 | 96 | 1015.0 |
| 20260507044234 | 76 | 152 | 0.0 | 0.0 | 0.00 | 0.00 | 1.18 | 96 | 1015.0 |
| 20260507043735 | 76 | 135 | 0.0 | 1.0 | 0.00 | 0.00 | 1.18 | 96 | 1015.0 |
| 20260507043233 | 77 | 135 | 0.0 | 2.0 | 0.00 | 0.00 | 1.18 | 95 | 1015.0 |
| 20260507042734 | 77 | 138 | 0.0 | 1.0 | 0.00 | 0.00 | 1.18 | 96 | 1015.0 |
| 20260507042233 | 77 | 217 | 0.0 | 0.0 | 0.00 | 0.00 | 1.18 | 96 | 1015.0 |
| 20260507041733 | 77 | 141 | 1.0 | 2.0 | 0.00 | 0.00 | 1.18 | 96 | 1015.0 |
| 20260507041233 | 77 | 280 | 0.0 | 1.0 | 0.00 | 0.00 | 1.18 | 95 | 1015.0 |
| 20260507040733 | 77 | 127 | 0.0 | 0.0 | 0.00 | 0.00 | 1.18 | 95 | 1015.0 |
| 20260507040233 | 77 | 159 | 0.0 | 1.0 | 0.00 | 0.00 | 1.18 | 95 | 1015.0 |
| 20260507035734 | 77 | 289 | 0.0 | 1.0 | 0.00 | 0.00 | 1.18 | 95 | 1015.0 |
| 20260507035234 | 77 | 32 | 0.0 | 1.0 | 0.00 | 0.00 | 1.18 | 95 | 1015.0 |
| 20260507034734 | 77 | 114 | 0.0 | 0.0 | 0.00 | 0.00 | 1.18 | 95 | 1015.0 |
| 20260507034233 | 77 | 197 | 0.0 | 0.0 | 0.00 | 0.00 | 1.18 | 95 | 1015.0 |
| 20260507033733 | 77 | 60 | 0.0 | 0.0 | 0.00 | 0.00 | 1.18 | 95 | 1015.0 |
| 20260507033234 | 77 | 37 | 0.0 | 0.0 | 0.00 | 0.00 | 1.18 | 95 | 1015.0 |
| 20260507032734 | 77 | 249 | 0.0 | 1.0 | 0.00 | 0.00 | 1.18 | 96 | 1015.0 |
| 20260507032234 | 77 | 297 | 0.0 | 1.0 | 0.00 | 0.00 | 1.18 | 96 | 1015.0 |
| 20260507031735 | 77 | 246 | 0.0 | 1.0 | 0.00 | 0.00 | 1.18 | 96 | 1015.0 |
| 20260507031233 | 77 | 298 | 0.0 | 2.0 | 0.00 | 0.00 | 1.18 | 96 | 1015.0 |
| 20260507030734 | 77 | 250 | 0.0 | 1.0 | 0.00 | 0.00 | 1.18 | 96 | 1015.0 |
| 20260507030233 | 77 | 123 | 0.0 | 1.0 | 0.00 | 0.00 | 1.18 | 96 | 1015.0 |
| 20260507025733 | 77 | 132 | 0.0 | 0.0 | 0.00 | 0.00 | 1.18 | 95 | 1015.0 |
| 20260507025234 | 77 | 132 | 0.0 | 1.0 | 0.00 | 0.00 | 1.18 | 96 | 1015.0 |
| 20260507024734 | 77 | 148 | 0.0 | 1.0 | 0.00 | 0.00 | 1.18 | 95 | 1015.0 |
| 20260507024234 | 77 | 283 | 0.0 | 0.0 | 0.00 | 0.00 | 1.18 | 95 | 1015.0 |
| 20260507023739 | 77 | 242 | 0.0 | 1.0 | 0.00 | 0.00 | 1.18 | 95 | 1015.0 |
| 20260507023233 | 77 | 251 | 0.0 | 0.0 | 0.00 | 0.00 | 1.18 | 95 | 1015.0 |
| 20260507022734 | 77 | 135 | 0.0 | 1.0 | 0.00 | 0.00 | 1.18 | 95 | 1015.0 |
| 20260507022233 | 77 | 131 | 0.0 | 0.0 | 0.00 | 0.00 | 1.18 | 96 | 1015.0 |
| 20260507021734 | 77 | 231 | 0.0 | 0.0 | 0.00 | 0.00 | 1.18 | 95 | 1015.0 |
| 20260507021234 | 77 | 98 | 0.0 | 0.0 | 0.00 | 0.00 | 1.18 | 96 | 1014.0 |
| 20260507020733 | 77 | 152 | 0.0 | 0.0 | 0.00 | 0.00 | 1.18 | 96 | 1015.0 |
| 20260507020234 | 77 | 203 | 0.0 | 0.0 | 0.00 | 0.00 | 1.18 | 95 | 1014.0 |
| 20260507015733 | 77 | 150 | 0.0 | 3.0 | 0.00 | 0.00 | 1.18 | 95 | 1014.0 |
| 20260507015233 | 77 | 182 | 2.0 | 2.0 | 0.00 | 0.00 | 1.18 | 95 | 1014.0 |
| 20260507014734 | 77 | 182 | 0.0 | 1.0 | 0.00 | 0.00 | 1.18 | 95 | 1014.0 |
| 20260507014233 | 77 | 132 | 0.0 | 1.0 | 0.00 | 0.00 | 1.18 | 94 | 1014.0 |
| 20260507013739 | 77 | 224 | 0.0 | 0.0 | 0.00 | 0.00 | 1.18 | 94 | 1014.0 |
| 20260507013233 | 77 | 144 | 0.0 | 1.0 | 0.00 | 0.00 | 1.18 | 94 | 1014.0 |
| 20260507012733 | 77 | 143 | 0.0 | 2.0 | 0.00 | 0.00 | 1.18 | 94 | 1014.0 |
| 20260507012233 | 77 | 122 | 1.0 | 2.0 | 0.00 | 0.00 | 1.18 | 93 | 1014.0 |
| 20260507011734 | 77 | 125 | 0.0 | 2.0 | 0.00 | 0.00 | 1.18 | 93 | 1013.0 |
| 20260507011234 | 78 | 148 | 1.0 | 2.0 | 0.00 | 0.00 | 1.18 | 93 | 1014.0 |
| 20260507010733 | 78 | 108 | 0.0 | 1.0 | 0.00 | 0.00 | 1.18 | 93 | 1013.0 |
| 20260507010233 | 78 | 130 | 0.0 | 3.0 | 0.00 | 0.00 | 1.18 | 92 | 1013.0 |
| 20260507005733 | 78 | 141 | 0.0 | 2.0 | 0.00 | 0.00 | 1.18 | 92 | 1013.0 |
| 20260507005234 | 78 | 135 | 0.0 | 1.0 | 0.00 | 0.00 | 1.18 | 92 | 1013.0 |
| 20260507004733 | 79 | 154 | 0.0 | 1.0 | 0.00 | 0.00 | 1.18 | 92 | 1013.0 |
| 20260507004233 | 79 | 164 | 0.0 | 0.0 | 0.00 | 0.00 | 1.18 | 92 | 1013.0 |
| 20260507003734 | 79 | 207 | 0.0 | 1.0 | 0.00 | 0.00 | 1.18 | 92 | 1013.0 |
| 20260507003233 | 79 | 139 | 0.0 | 1.0 | 0.00 | 0.00 | 1.18 | 92 | 1012.0 |
| 20260507002734 | 79 | 132 | 0.0 | 1.0 | 0.00 | 0.00 | 1.18 | 92 | 1012.0 |
| 20260507002234 | 79 | 158 | 0.0 | 0.0 | 0.00 | 0.00 | 1.18 | 92 | 1013.0 |
| 20260507001733 | 79 | 269 | 0.0 | 1.0 | 0.00 | 0.00 | 1.18 | 92 | 1012.0 |
| 20260507001234 | 79 | 234 | 0.0 | 1.0 | 0.00 | 0.00 | 1.18 | 92 | 1012.0 |
| 20260507000734 | 79 | 302 | 0.0 | 0.0 | 0.00 | 0.00 | 1.18 | 92 | 1012.0 |
| 20260507000234 | 79 | 291 | 0.0 | 2.0 | 0.00 | 0.00 | 1.18 | 92 | 1012.0 |
| 20260506235733 | 79 | 181 | 0.0 | 0.0 | 0.00 | 0.00 | 1.18 | 91 | 1012.0 |
| 20260506235234 | 79 | 163 | 0.0 | 1.0 | 0.00 | 0.00 | 1.18 | 91 | 1012.0 |
| 20260506234733 | 79 | 200 | 0.0 | 0.0 | 0.00 | 0.00 | 1.18 | 91 | 1012.0 |
| 20260506234234 | 79 | 200 | 0.0 | 0.0 | 0.00 | 0.00 | 1.18 | 91 | 1012.0 |
| 20260506233733 | 79 | 200 | 0.0 | 5.0 | 0.00 | 0.00 | 1.18 | 90 | 1012.0 |
| 20260506233233 | 79 | 200 | 5.0 | 5.0 | 0.00 | 0.00 | 1.18 | 90 | 1012.0 |
| 20260506232733 | 79 | 200 | 5.0 | 5.0 | 0.00 | 0.00 | 1.18 | 89 | 1012.0 |
| 20260506232234 | 80 | 200 | 5.0 | 5.0 | 0.00 | 0.00 | 1.18 | 89 | 1012.0 |
| 20260506231734 | 80 | 200 | 5.0 | 5.0 | 0.00 | 0.00 | 1.18 | 89 | 1012.0 |
| 20260506231233 | 80 | 200 | 5.0 | 5.0 | 0.00 | 0.00 | 1.18 | 89 | 1012.0 |
| 20260506230733 | 80 | 200 | 5.0 | 5.0 | 0.00 | 0.00 | 1.18 | 88 | 1012.0 |
| 20260506230233 | 81 | 200 | 5.0 | 5.0 | 0.00 | 0.00 | 1.18 | 87 | 1012.0 |
| 20260506225734 | 81 | 200 | 5.0 | 5.0 | 0.00 | 0.00 | 1.18 | 87 | 1011.0 |
| 20260506225233 | 82 | 200 | 5.0 | 5.0 | 0.00 | 0.00 | 1.18 | 86 | 1011.0 |
| 20260506224733 | 82 | 200 | 5.0 | 5.0 | 0.00 | 0.00 | 1.18 | 85 | 1011.0 |
| 20260506224235 | 83 | 200 | 5.0 | 5.0 | 0.00 | 0.00 | 1.18 | 84 | 1011.0 |
| 20260506223733 | 83 | 200 | 5.0 | 5.0 | 0.00 | 0.00 | 1.18 | 83 | 1011.0 |
| 20260506223234 | 83 | 200 | 5.0 | 5.0 | 0.00 | 0.00 | 1.18 | 83 | 1011.0 |
| 20260506222733 | 84 | 200 | 5.0 | 5.0 | 0.00 | 0.00 | 1.18 | 83 | 1010.0 |
| 20260506222234 | 84 | 200 | 5.0 | 5.0 | 0.00 | 0.00 | 1.18 | 83 | 1011.0 |
| 20260506221733 | 84 | 200 | 5.0 | 5.0 | 0.00 | 0.00 | 1.18 | 83 | 1010.0 |
| 20260506221233 | 84 | 200 | 5.0 | 5.0 | 0.00 | 0.00 | 1.18 | 83 | 1010.0 |
| 20260506220733 | 83 | 200 | 5.0 | 5.0 | 0.00 | 0.00 | 1.18 | 84 | 1010.0 |
| 20260506220234 | 83 | 200 | 5.0 | 5.0 | 0.00 | 0.00 | 1.18 | 84 | 1010.0 |
| 20260506215733 | 83 | 200 | 5.0 | 5.0 | 0.00 | 0.00 | 1.18 | 84 | 1011.0 |
| 20260506215234 | 83 | 200 | 5.0 | 5.0 | 0.00 | 0.00 | 1.18 | 84 | 1011.0 |
| 20260506214735 | 83 | 200 | 5.0 | 5.0 | 0.00 | 0.00 | 1.18 | 84 | 1011.0 |
| 20260506214233 | 83 | 200 | 5.0 | 5.0 | 0.00 | 0.00 | 1.18 | 84 | 1010.0 |
| 20260506213235 | 83 | 200 | 5.0 | 5.0 | 0.00 | 0.00 | 1.18 | 84 | 1010.0 |
| 20260506212734 | 83 | 200 | 5.0 | 5.0 | 0.00 | 0.00 | 1.18 | 84 | 1010.0 |
| 20260506212234 | 83 | 200 | 5.0 | 5.0 | 0.00 | 0.00 | 1.18 | 84 | 1010.0 |
| 20260506211733 | 83 | 200 | 5.0 | 5.0 | 0.00 | 0.00 | 1.18 | 83 | 1010.0 |
| 20260506211234 | 83 | 200 | 5.0 | 5.0 | 0.00 | 0.00 | 1.18 | 83 | 1010.0 |
| 20260506210734 | 83 | 200 | 5.0 | 5.0 | 0.00 | 0.00 | 1.18 | 84 | 1011.0 |
| 20260506210234 | 83 | 200 | 5.0 | 5.0 | 0.00 | 0.00 | 1.18 | 83 | 1010.0 |
| 20260506205733 | 83 | 200 | 5.0 | 5.0 | 0.00 | 0.00 | 1.18 | 83 | 1011.0 |
| 20260506203233 | 83 | 200 | 5.0 | 5.0 | 0.00 | 0.00 | 1.18 | 82 | 1010.0 |
| 20260506202733 | 84 | 200 | 5.0 | 5.0 | 0.00 | 0.00 | 1.18 | 82 | 1011.0 |
| 20260506202233 | 84 | 200 | 5.0 | 5.0 | 0.00 | 0.00 | 1.18 | 82 | 1011.0 |
| 20260506201733 | 84 | 200 | 5.0 | 5.0 | 0.00 | 0.00 | 1.18 | 83 | 1010.0 |
| 20260506201234 | 84 | 200 | 5.0 | 5.0 | 0.00 | 0.00 | 1.18 | 83 | 1011.0 |
| 20260506200734 | 83 | 200 | 5.0 | 5.0 | 0.00 | 0.00 | 1.18 | 83 | 1011.0 |
| 20260506200233 | 83 | 200 | 5.0 | 5.0 | 0.00 | 0.00 | 1.18 | 83 | 1011.0 |
| 20260506195733 | 83 | 200 | 5.0 | 5.0 | 0.00 | 0.00 | 1.18 | 82 | 1012.0 |
| 20260506195234 | 83 | 200 | 5.0 | 5.0 | 0.00 | 0.00 | 1.18 | 82 | 1011.0 |
| 20260506194734 | 84 | 200 | 5.0 | 5.0 | 0.00 | 0.00 | 1.18 | 82 | 1012.0 |
| 20260506194233 | 84 | 200 | 5.0 | 5.0 | 0.00 | 0.00 | 1.18 | 83 | 1012.0 |
| 20260506193733 | 83 | 200 | 5.0 | 5.0 | 0.00 | 0.00 | 1.18 | 83 | 1012.0 |
| 20260506193233 | 83 | 200 | 5.0 | 5.0 | 0.00 | 0.00 | 1.18 | 82 | 1012.0 |
| 20260506192734 | 83 | 200 | 5.0 | 5.0 | 0.00 | 0.00 | 1.18 | 83 | 1012.0 |
| 20260506192233 | 84 | 200 | 5.0 | 5.0 | 0.00 | 0.00 | 1.18 | 83 | 1012.0 |